Selinsgrove, PA

11:11 AM EDT on May 23, 2017 (GMT -0400)
Penn Valley

Weather History for KSEG - September, 2014

Change the Weather History Date:

Wednesday, September 3, 2014

  Actual Average (KIPT) Record (KIPT)
Temperature  
Mean Temperature 70 °F -  
Max Temperature 82 °F 77 °F 102 °F (1953)
Min Temperature 60 °F 56 °F 42 °F (1967)
Cooling Degree Days 6    
Growing Degree Days 20 (Base 50)    
Moisture  
Dew Point 62 °F    
Average Humidity 86    
Maximum Humidity 97    
Minimum Humidity 47    
Precipitation  
Precipitation 0.00 in - - ()
Sea Level Pressure  
Sea Level Pressure 30.01 in    
Wind  
Wind Speed 0 mph (SSW)    
Max Wind Speed 6 mph    
Max Gust Speed -    
Visibility 5 miles    
Events Fog    
Averages and records for this station are not official NWS values.
T = Trace of Precipitation, MM = Missing Value Source: NWS Daily Summary

Daily Weather History Graph

Daily Weather History Graph

Search for Another Location

Airport or City:

Trip Planner

Search our weather history database for the weather conditions in past years. The results will help you decide how hot, cold, wet, or windy it might be!

Date:

Astronomy

Sep. 03, 2014 Rise Set
Actual Time 6:36 AM EDT 7:36 PM EDT
Civil Twilight 6:08 AM EDT 8:04 PM EDT
Nautical Twilight 5:34 AM EDT 8:37 PM EDT
Astronomical Twilight 4:59 AM EDT 9:12 PM EDT
Moon 3:17 PM EDT (9/3) 12:27 AM EDT (9/3)
Length of Visible Light 13h 56m
Length of Day
13h 00m
Waxing Gibbous, 63% of the Moon is Illuminated
Sep 3
Waxing Gibbous
Sep 8
Full
Sep 15
Last Quarter
Sep 24
New
Oct 1
First Quarter

Hourly Weather History & Observations

Time (EDT) Temp. Heat Index Dew Point Humidity Pressure Visibility Wind Dir Wind Speed Gust Speed Precip Events Conditions
12:53 AM 66.0 °F - 64.9 °F 96% 29.93 in 4.0 mi Calm Calm - N/A   Clear
1:27 AM 64.9 °F - 63.0 °F 93% 29.94 in 1.8 mi Calm Calm - N/A   Clear
1:32 AM 64.9 °F - 64.0 °F 97% 29.94 in 1.0 mi Calm Calm - N/A   Mist
1:40 AM 64.9 °F - 64.0 °F 97% 29.94 in 0.5 mi Calm Calm - N/A Fog Fog
1:53 AM 64.9 °F - 63.0 °F 93% 29.94 in 1.2 mi Calm Calm - N/A   Partly Cloudy
1:58 AM 64.0 °F - 63.0 °F 96% 29.95 in 3.0 mi Calm Calm - N/A   Partly Cloudy
2:07 AM 64.0 °F - 63.0 °F 96% 29.95 in 2.0 mi Calm Calm - N/A   Partly Cloudy
2:14 AM 64.0 °F - 63.0 °F 96% 29.95 in 1.2 mi Calm Calm - N/A   Clear
2:23 AM 64.0 °F - 63.0 °F 96% 29.95 in 3.0 mi Calm Calm - N/A   Clear
2:43 AM 63.0 °F - 62.1 °F 97% 29.95 in 2.5 mi Calm Calm - N/A   Clear
2:53 AM 63.0 °F - 62.1 °F 97% 29.94 in 3.0 mi Calm Calm - N/A   Clear
2:56 AM 63.0 °F - 61.0 °F 93% 29.95 in 1.8 mi Calm Calm - N/A   Partly Cloudy
3:21 AM 63.0 °F - 61.0 °F 93% 29.95 in 3.0 mi Calm Calm - N/A   Clear
3:27 AM 63.0 °F - 62.1 °F 97% 29.95 in 1.8 mi Calm Calm - N/A   Clear
3:42 AM 63.0 °F - 61.0 °F 93% 29.96 in 2.0 mi Calm Calm - N/A   Clear
3:53 AM 62.1 °F - 61.0 °F 96% 29.95 in 2.5 mi Calm Calm - N/A   Clear
4:10 AM 62.1 °F - 60.1 °F 93% 29.96 in 1.2 mi Calm Calm - N/A   Clear
4:22 AM 62.1 °F - 60.1 °F 93% 29.96 in 3.0 mi Calm Calm - N/A   Clear
4:53 AM 61.0 °F - 60.1 °F 97% 29.97 in 4.0 mi Calm Calm - N/A   Clear
5:13 AM 61.0 °F - 59.0 °F 93% 29.98 in 2.5 mi Calm Calm - N/A   Clear
5:21 AM 61.0 °F - 59.0 °F 93% 29.99 in 5.0 mi Calm Calm - N/A   Clear
5:32 AM 61.0 °F - 60.1 °F 97% 29.99 in 2.5 mi NW 3.5 mph - N/A   Clear
5:40 AM 61.0 °F - 60.1 °F 97% 30.00 in 4.0 mi Calm Calm - N/A   Clear
5:53 AM 61.0 °F - 59.0 °F 93% 29.99 in 4.0 mi Calm Calm - N/A   Clear
6:38 AM 60.1 °F - 59.0 °F 96% 30.02 in 2.5 mi Calm Calm - N/A   Clear
6:53 AM 61.0 °F - 59.0 °F 93% 30.02 in 3.0 mi Calm Calm - N/A   Clear
7:53 AM 64.0 °F - 62.1 °F 93% 30.04 in 7.0 mi Calm Calm - N/A   Clear
8:53 AM 69.1 °F - 64.9 °F 87% 30.06 in 10.0 mi Calm Calm - N/A   Clear
9:53 AM 71.1 °F - 63.0 °F 75% 30.07 in 10.0 mi Calm Calm - N/A   Clear
10:53 AM 73.9 °F - 63.0 °F 68% 30.09 in 10.0 mi Calm Calm - N/A   Clear
11:53 AM 78.1 °F - 63.0 °F 60% 30.09 in 9.0 mi NW 4.6 mph - N/A   Clear
12:53 PM 80.1 °F 81.2 °F 62.1 °F 54% 30.08 in 10.0 mi NNW 4.6 mph - N/A   Clear
1:53 PM 81.0 °F 81.6 °F 60.1 °F 49% 30.08 in 10.0 mi Calm Calm - N/A   Partly Cloudy
2:53 PM 81.0 °F 81.6 °F 60.1 °F 49% 30.08 in 10.0 mi Calm Calm - N/A   Clear
3:53 PM 80.1 °F 81.1 °F 61.0 °F 52% 30.07 in 10.0 mi SSE 4.6 mph - N/A   Partly Cloudy
4:53 PM 81.0 °F 81.3 °F 59.0 °F 47% 30.07 in 10.0 mi East 3.5 mph - N/A   Mostly Cloudy
5:53 PM 80.1 °F 80.9 °F 60.1 °F 50% 30.08 in 10.0 mi South 5.8 mph - N/A   Scattered Clouds
6:53 PM 72.0 °F - 66.0 °F 81% 30.08 in 10.0 mi South 3.5 mph - N/A   Clear
7:53 PM 68.0 °F - 64.9 °F 90% 30.09 in 10.0 mi Calm Calm - N/A   Clear
8:53 PM 64.9 °F - 63.0 °F 93% 30.10 in 8.0 mi Calm Calm - N/A   Clear
9:53 PM 63.0 °F - 61.0 °F 93% 30.11 in 7.0 mi Calm Calm - N/A   Clear
10:53 PM 62.1 °F - 60.1 °F 93% 30.13 in 6.0 mi Calm Calm - N/A   Clear
11:53 PM 61.0 °F - 59.0 °F 93% 30.14 in 7.0 mi Calm Calm - N/A   Clear